Tracking 31027 objects as of 19-Jul-2025
HD Live streaming from Space Station
objects crossing your sky now

STARLINK-5477

Track STARLINK-5477 now!
10-day predictions
STARLINK-5477 is classified as:


NORAD ID: 55659
Int'l Code: 2023-021AH
Perigee: 577.2 km
Apogee: 581.2 km
Inclination: 70.0 °
Period: 96.1 minutes
Semi major axis: 6950 km
RCS: Unknown
Launch date: February 17, 2023
Source: United States (US)
Launch site: AIR FORCE WESTERN TEST RANGE (AFWTR)
Your satellite tracking list
SL-12 R/B(2)
Track 1 satellite(s)




NASA's NSSDC Master Catalog

Two Line Element Set (TLE):
1 55659U 23021AH  25198.97815217 -.00000386  00000-0 -24593-4 0  9999
2 55659  69.9998  36.3837 0002835 268.5596  91.5239 14.98327853134110
Source of the keplerian elements: AFSPC